SWA2981 PHLI-PHNL

Flight info

Callsign SWA2981
Flight time 0h 23m
Altitude 13000
Route LIHUE6 BOOKE BOOKE8
Aircraft B38M/M-SADE2E3GHIJ4J7P2RWZ/LB1D1

Departure

Time 2026-04-25 12:51
Airport Lihue Airport (PHLI)

Arrival

Time 2026-04-25 13:14
Airport Daniel K. Inouye International Airport (PHNL)
Time Latitude Longitude Altitude Speed Heading
2026-04-25 12:29 21.97745 -159.34865 156 ft 0 kts 315°
2026-04-25 12:43 21.97743 -159.34863 156 ft 2 kts 315°
2026-04-25 12:43 21.97710 -159.34824 156 ft 4 kts 275°
2026-04-25 12:44 21.97715 -159.34802 156 ft 4 kts 244°
2026-04-25 12:44 21.97730 -159.34778 156 ft 4 kts 226°
2026-04-25 12:44 21.97741 -159.34767 156 ft 0 kts 225°
2026-04-25 12:47 21.97738 -159.34769 156 ft 0 kts 225°
2026-04-25 12:47 21.97712 -159.34798 156 ft 12 kts 225°
2026-04-25 12:47 21.97614 -159.34904 156 ft 18 kts 225°
2026-04-25 12:47 21.97600 -159.34917 156 ft 0 kts 210°
2026-04-25 12:48 21.97593 -159.34903 156 ft 7 kts 105°
2026-04-25 12:48 21.97544 -159.34827 157 ft 18 kts 153°
2026-04-25 12:48 21.97489 -159.34840 157 ft 4 kts 224°
2026-04-25 12:48 21.97437 -159.34895 156 ft 16 kts 224°
2026-04-25 12:49 21.97370 -159.34936 155 ft 0 kts 172°
2026-04-25 12:50 21.97362 -159.34932 155 ft 3 kts 152°
2026-04-25 12:50 21.97333 -159.34903 154 ft 8 kts 131°
2026-04-25 12:50 21.97340 -159.34833 154 ft 12 kts 51°
2026-04-25 12:50 21.97485 -159.34679 155 ft 64 kts 45°
2026-04-25 12:51 21.97989 -159.34143 126 ft 135 kts 44°
2026-04-25 12:51 21.98670 -159.33412 684 ft 148 kts 48°
2026-04-25 12:51 21.99465 -159.32497 1145 ft 174 kts 49°
2026-04-25 12:51 22.00279 -159.31509 2102 ft 180 kts 49°
2026-04-25 12:52 22.01035 -159.30247 2399 ft 226 kts 71°
2026-04-25 12:52 22.01028 -159.28519 3366 ft 237 kts 99°
2026-04-25 12:52 22.00728 -159.26730 4268 ft 251 kts 95°
2026-04-25 12:52 22.00540 -159.24813 5302 ft 256 kts 89°
2026-04-25 12:53 22.00534 -159.22893 6449 ft 258 kts 88°
2026-04-25 12:53 22.00557 -159.20966 7490 ft 262 kts 88°
2026-04-25 12:53 22.00579 -159.18950 8299 ft 277 kts 88°
2026-04-25 12:53 22.00602 -159.16820 9114 ft 288 kts 86°
2026-04-25 12:54 22.00627 -159.14635 10047 ft 296 kts 86°
2026-04-25 12:54 22.00655 -159.12350 10644 ft 314 kts 87°
2026-04-25 12:54 22.00684 -159.09923 11173 ft 332 kts 87°
2026-04-25 12:54 22.00672 -159.07388 11532 ft 348 kts 92°
2026-04-25 12:55 21.99915 -159.04871 11719 ft 361 kts 121°
2026-04-25 12:55 21.98857 -159.03477 11926 ft 365 kts 136°
2026-04-25 12:55 21.96411 -159.00941 12343 ft 373 kts 133°
2026-04-25 12:55 21.94599 -158.98918 12477 ft 375 kts 133°
2026-04-25 12:56 21.92800 -158.96902 12760 ft 373 kts 133°
2026-04-25 12:56 21.91004 -158.94889 12948 ft 373 kts 133°
2026-04-25 12:56 21.89198 -158.92864 12969 ft 374 kts 133°
2026-04-25 12:56 21.87404 -158.90852 12970 ft 371 kts 133°
2026-04-25 12:57 21.85616 -158.88849 12967 ft 371 kts 133°
2026-04-25 12:57 21.83825 -158.86842 12965 ft 372 kts 133°
2026-04-25 12:57 21.82024 -158.84823 12971 ft 372 kts 133°
2026-04-25 12:57 21.80255 -158.82844 12963 ft 371 kts 133°
2026-04-25 12:58 21.78464 -158.80839 12969 ft 371 kts 133°
2026-04-25 12:58 21.76671 -158.78833 12963 ft 371 kts 133°
2026-04-25 12:58 21.74875 -158.76825 12969 ft 371 kts 133°
2026-04-25 12:58 21.73087 -158.74827 12963 ft 370 kts 133°
2026-04-25 12:59 21.71300 -158.72829 12967 ft 371 kts 133°
2026-04-25 12:59 21.69511 -158.70831 12610 ft 372 kts 133°
2026-04-25 12:59 21.67720 -158.68827 11905 ft 378 kts 133°
2026-04-25 12:59 21.65900 -158.66795 11386 ft 377 kts 133°
2026-04-25 13:00 21.64088 -158.64776 11078 ft 370 kts 133°
2026-04-25 13:00 21.63484 -158.64104 11021 ft 367 kts 133°
2026-04-25 13:00 21.60624 -158.60922 10733 ft 341 kts 132°
2026-04-25 13:00 21.59024 -158.59142 10603 ft 321 kts 132°
2026-04-25 13:01 21.57505 -158.57451 10579 ft 308 kts 133°
2026-04-25 13:01 21.56043 -158.55825 10392 ft 295 kts 131°
2026-04-25 13:01 21.54649 -158.54272 10187 ft 284 kts 133°
2026-04-25 13:01 21.53267 -158.52732 9989 ft 291 kts 133°
2026-04-25 13:02 21.51868 -158.51171 9650 ft 294 kts 132°
2026-04-25 13:02 21.50441 -158.49582 9295 ft 294 kts 133°
2026-04-25 13:02 21.49025 -158.48005 8977 ft 293 kts 132°
2026-04-25 13:02 21.47613 -158.46434 8659 ft 291 kts 132°
2026-04-25 13:03 21.46241 -158.44843 8338 ft 289 kts 125°
2026-04-25 13:03 21.45194 -158.43017 8000 ft 286 kts 118°
2026-04-25 13:03 21.44203 -158.41172 7699 ft 284 kts 118°
2026-04-25 13:03 21.43214 -158.39347 7409 ft 282 kts 118°
2026-04-25 13:04 21.42227 -158.37537 7115 ft 280 kts 118°
2026-04-25 13:04 21.41234 -158.35750 6817 ft 278 kts 122°
2026-04-25 13:04 21.39969 -158.34178 6521 ft 278 kts 133°
2026-04-25 13:04 21.38605 -158.32768 6194 ft 271 kts 134°
2026-04-25 13:05 21.37266 -158.31402 5888 ft 261 kts 134°
2026-04-25 13:05 21.35977 -158.30095 5631 ft 249 kts 134°
2026-04-25 13:05 21.34732 -158.28851 5397 ft 240 kts 134°
2026-04-25 13:05 21.33487 -158.27614 5182 ft 247 kts 134°
2026-04-25 13:06 21.32223 -158.26363 4938 ft 246 kts 134°
2026-04-25 13:06 21.30964 -158.25130 4679 ft 244 kts 133°
2026-04-25 13:06 21.29693 -158.23929 4419 ft 242 kts 134°
2026-04-25 13:06 21.28436 -158.22750 4185 ft 238 kts 134°
2026-04-25 13:07 21.27216 -158.21609 4035 ft 232 kts 134°
2026-04-25 13:07 21.25989 -158.20475 3950 ft 232 kts 134°
2026-04-25 13:07 21.24769 -158.19345 3870 ft 232 kts 134°
2026-04-25 13:07 21.23533 -158.18224 3719 ft 231 kts 134°
2026-04-25 13:08 21.22284 -158.17127 3275 ft 231 kts 133°
2026-04-25 13:08 21.21289 -158.15845 2837 ft 221 kts 114°
2026-04-25 13:08 21.20622 -158.14397 2466 ft 210 kts 102°
2026-04-25 13:08 21.20499 -158.12945 2208 ft 191 kts 82°
2026-04-25 13:09 21.20602 -158.11571 2041 ft 177 kts 81°
2026-04-25 13:09 21.20709 -158.10296 2010 ft 170 kts 81°
2026-04-25 13:09 21.20820 -158.09044 2087 ft 168 kts 81°
2026-04-25 13:09 21.21016 -158.07840 2045 ft 161 kts 67°
2026-04-25 13:10 21.21541 -158.06795 1992 ft 160 kts 56°
2026-04-25 13:10 21.22189 -158.05815 1979 ft 164 kts 54°
2026-04-25 13:10 21.22875 -158.04825 1989 ft 166 kts 54°
2026-04-25 13:10 21.23565 -158.03837 2004 ft 163 kts 53°
2026-04-25 13:11 21.24240 -158.02877 2022 ft 161 kts 53°
2026-04-25 13:11 21.24917 -158.01912 2003 ft 164 kts 53°
2026-04-25 13:11 21.25587 -158.00961 1839 ft 157 kts 52°
2026-04-25 13:11 21.26229 -158.00048 1667 ft 151 kts 53°
2026-04-25 13:12 21.26901 -157.99094 1482 ft 174 kts 52°
2026-04-25 13:12 21.27664 -157.98008 1190 ft 183 kts 50°
2026-04-25 13:12 21.28343 -157.97032 1044 ft 151 kts 51°
2026-04-25 13:12 21.28747 -157.96472 951 ft 136 kts 54°
2026-04-25 13:13 21.29455 -157.95461 722 ft 110 kts 51°
2026-04-25 13:13 21.29930 -157.94790 367 ft 127 kts 53°
2026-04-25 13:13 21.30560 -157.93941 306 ft 140 kts 48°
2026-04-25 13:13 21.31096 -157.93140 149 ft 124 kts 49°
2026-04-25 13:14 21.31586 -157.92452 27 ft 106 kts 54°
2026-04-25 13:14 21.31938 -157.91949 27 ft 62 kts 52°
2026-04-25 13:14 21.32095 -157.91720 26 ft 16 kts 53°
2026-04-25 13:14 21.32169 -157.91618 26 ft 21 kts 51°
2026-04-25 13:15 21.32279 -157.91464 26 ft 31 kts 54°
2026-04-25 13:15 21.32422 -157.91360 26 ft 16 kts 16°
2026-04-25 13:15 21.32538 -157.91334 26 ft 18 kts
2026-04-25 13:15 21.32663 -157.91313 26 ft 18 kts 11°
2026-04-25 13:16 21.32695 -157.91308 26 ft 4 kts
2026-04-25 13:16 21.32732 -157.91302 26 ft 7 kts
2026-04-25 13:16 21.32771 -157.91332 26 ft 9 kts 286°
2026-04-25 13:16 21.32774 -157.91407 26 ft 12 kts 269°
2026-04-25 13:17 21.32774 -157.91504 26 ft 14 kts 271°
2026-04-25 13:17 21.32774 -157.91621 26 ft 17 kts 269°
2026-04-25 13:17 21.32773 -157.91761 26 ft 20 kts 270°
2026-04-25 13:17 21.32779 -157.91887 26 ft 13 kts 292°
2026-04-25 13:18 21.32850 -157.91937 26 ft 9 kts 318°
2026-04-25 13:18 21.32884 -157.91970 26 ft 4 kts 317°
2026-04-25 13:18 21.32892 -157.91978 26 ft 0 kts 319°
2026-04-25 13:20 21.32887 -157.91973 26 ft 0 kts 318°